Location: Strawberry
(45.6646°N, 111.9596°W)
Time: 10:58:31
(UTC+00:00)

BEESAT 3 - Visible Passes

Search period start: 30 November 2022 00:00
Search period end: 10 December 2022 00:00
Orbit: 441 x 483 km, 64.9° (Epoch: 29 November)

Date Brightness Start Highest point End Pass type
(mag) Time Alt. Az. Time Alt. Az. Time Alt. Az.
06 Dec ? 01:05:11 10° NNE 01:05:22 10° NNE 01:05:22 10° NNE visible
07 Dec ? 02:06:49 10° NNW 02:07:28 14° NNW 02:07:28 14° NNW visible
08 Dec ? 01:33:51 10° NNW 01:35:47 23° N 01:35:47 23° N visible
09 Dec ? 01:00:55 10° NNW 01:03:54 23° NE 01:04:17 22° NE visible
09 Dec ? 02:37:04 10° NW 02:38:11 18° WNW 02:38:11 18° WNW visible
